Content
SEND FEEDBACK

Daily
Averages
Monthly
Summary
United States of America

YIGO, GUAM


Home > North America > United States > Guam
Elevation: 530 feet     Latitude: 13 32N     Longitude: 144 53E

WEATHER
 
SELECT A DAY
Number of Records: 208,860;   Date Range: 1/1/95 - 7/20/14
 
SHARE

PRINT THIS DATA

[ ← Previous Day ]
WEATHER ALMANAC - FEBRUARY 24, 2014
[ Next Day → ]
[ °C ]   °F
Weather ElementAverageHighLow
Temperature81 °F87.1 °F (11:54 am)77 °F (4:54 am)
Dewpoint72.9 °F75.2 °F (6:30 pm)71.1 °F (10:54 am)
Humidity76.7 %90 % (6:54 am)61 % (10:54 am)
Barometer29.85 in29.89 in (9:54 am)29.79 in (2:54 pm)
Wind Speed12.1 mph21.9 mph (2:54 pm)
Wind Gust26.5 mph (10:54 am)
Weather ElementAverage
Visibility9.9 mi
Wind DirectionENE (55.4 °)

Weather ElementTotal
Precipitation---
Cooling Degree Days17.1 (Base 65)
Growing Degree Days32.1 (Base 50)
Averaged from 24 records on February 24, 2014
WEATHER CONDITIONS BREAKOUT
WIND DIRECTION BREAKOUT
WEATHER BY HOUR - FEBRUARY 24, 2014
[ °C ]   °F
Local TimeTemperatureDewpointHumidityBarometerVisibilityWind DirectionWind SpeedGust SpeedPrecipitationEventsConditions
1:54 AM78.1 °F73.0 °F84 %29.83 in10.0 miNE (50°)5.8 mphPartly Cloudy
2:54 AM79.0 °F73.0 °F82 %29.82 in10.0 miENE (60°)8.1 mphClear
3:54 AM78.1 °F73.0 °F84 %29.81 in10.0 miENE (60°)5.8 mphPartly Cloudy
4:54 AM77.0 °F73.0 °F88 %29.82 in10.0 miNE (50°)5.8 mphClear
5:54 AM77.0 °F73.0 °F88 %29.83 in10.0 miNorth (10°)6.9 mphScattered Clouds
6:54 AM77.0 °F73.9 °F90 %29.86 in10.0 miNE (50°)6.9 mphScattered Clouds
7:54 AM79.0 °F73.9 °F84 %29.87 in10.0 miENE (70°)8.1 mphPartly Cloudy
8:54 AM82.9 °F73.0 °F72 %29.88 in10.0 miENE (60°)16.1 mphPartly Cloudy
9:54 AM84.9 °F73.0 °F67 %29.89 in10.0 miEast (80°)15.0 mph19.6 mphScattered Clouds
10:54 AM86.0 °F71.1 °F61 %29.88 in10.0 miENE (60°)17.3 mph26.5 mph0.00 inScattered Clouds
11:54 AM87.1 °F72.0 °F61 %29.86 in10.0 miENE (60°)18.4 mph21.9 mphScattered Clouds
12:54 PM86.0 °F72.0 °F63 %29.83 in10.0 miENE (70°)20.7 mph0.00 inMostly Cloudy
1:54 PM84.9 °F72.0 °F65 %29.81 in10.0 miEast (80°)18.4 mphMostly Cloudy
2:54 PM86.0 °F71.1 °F61 %29.79 in10.0 miENE (60°)21.9 mph25.3 mphMostly Cloudy
3:54 PM84.0 °F75.0 °F74 %29.80 in9.0 miENE (60°)16.1 mph0.00 inRainLight Rain
4:54 PM82.9 °F73.9 °F74 %29.81 in10.0 miNE (40°)11.5 mph0.00 inOvercast
5:54 PM80.1 °F72.0 °F76 %29.83 in10.0 miNNE (30°)11.5 mph0.00 inMostly Cloudy
6:15 PM78.8 °F73.4 °F83 %29.86 in9.0 miEast (80°)9.2 mph18.4 mph0.00 inRainLight Rain
6:30 PM78.8 °F75.2 °F89 %29.86 in9.0 miNNE (30°)6.9 mph0.00 inRainLight Rain
7:54 PM79.0 °F73.9 °F84 %29.86 in10.0 miNE (50°)11.5 mphMostly Cloudy
8:54 PM79.0 °F72.0 °F79 %29.87 in10.0 miNE (50°)11.5 mph0.00 inMostly Cloudy
9:54 PM79.0 °F72.0 °F79 %29.87 in10.0 miNE (50°)10.4 mphMostly Cloudy
10:54 PM80.1 °F72.0 °F76 %29.88 in10.0 miENE (60°)12.7 mphScattered Clouds
11:54 PM80.1 °F72.0 °F76 %29.87 in10.0 miENE (60°)12.7 mphPartly Cloudy
Hourly data recorded from PGUM, located miles away from Yigo, Guam







STORIES FROM OUR PARTNERS